Zurück zum Katalog

SL-8 R/B

AktivPO
NORAD 20578·ROCKET BODY·🇷🇺 Russia

Gestartet Apr 20, 1990 von Plesetsk Cosmodrome

Loading…

Nächste Überflüge (nächste 24 Stunden)

TLE

AktuellSource: Space-Track

Epoche: Sep 14, 2026, 15:05 UTC

1 20578U 90036B   26257.62870182  .00000045  00000-0  30283-4 0  9995
2 20578  82.9474  12.8850 0011582 252.9149 118.3839 13.76651894828181

Verfolge SL-8 R/B in Echtzeit mit AllMySat

Download on the App Store